Year,Month,Day,Hour,Minute,Value (Times are PST for temperature in C)
2012,02,01,00,00,5.80
2012,02,01,00,01,5.80
2012,02,01,00,02,5.80
2012,02,01,00,03,5.80
2012,02,01,00,04,5.80
2012,02,01,00,05,5.80
2012,02,01,00,06,5.80
2012,02,01,00,07,5.80
2012,02,01,00,08,5.80
2012,02,01,00,09,5.80
2012,02,01,00,10,5.80
2012,02,01,00,11,5.80
2012,02,01,00,12,5.80
2012,02,01,00,13,5.80
2012,02,01,00,14,5.80
2012,02,01,00,15,5.80
2012,02,01,00,16,5.80
2012,02,01,00,17,5.80
2012,02,01,00,18,5.80
2012,02,01,00,19,5.80
2012,02,01,00,20,5.80
2012,02,01,00,21,5.80
2012,02,01,00,22,5.80
2012,02,01,00,23,5.80
2012,02,01,00,24,5.80
2012,02,01,00,25,5.80
2012,02,01,00,26,5.80
2012,02,01,00,27,5.80
2012,02,01,00,28,5.80
2012,02,01,00,29,5.70
2012,02,01,00,30,5.80
2012,02,01,00,31,5.70
2012,02,01,00,32,5.70
2012,02,01,00,33,5.70
2012,02,01,00,34,5.70
2012,02,01,00,35,5.70
2012,02,01,00,36,5.80
2012,02,01,00,37,5.80
2012,02,01,00,38,5.80
2012,02,01,00,39,5.80
2012,02,01,00,40,5.80
2012,02,01,00,41,5.80
2012,02,01,00,42,5.80
2012,02,01,00,43,5.80
2012,02,01,00,44,5.80
2012,02,01,00,45,5.80
2012,02,01,00,46,5.80
2012,02,01,00,47,5.80
2012,02,01,00,48,5.80
2012,02,01,00,49,5.80
2012,02,01,00,50,5.80
2012,02,01,00,51,5.80
2012,02,01,00,52,5.70
2012,02,01,00,53,5.80
2012,02,01,00,54,5.80
2012,02,01,00,55,5.80
2012,02,01,00,56,5.80
2012,02,01,00,57,5.80
2012,02,01,00,58,5.80
2012,02,01,00,59,5.80
2012,02,01,01,00,5.80
2012,02,01,01,01,5.80
2012,02,01,01,02,5.80
2012,02,01,01,03,5.80
2012,02,01,01,04,5.80
2012,02,01,01,05,5.80
2012,02,01,01,06,5.80
2012,02,01,01,07,5.80
2012,02,01,01,08,5.80
2012,02,01,01,09,5.80
2012,02,01,01,10,5.80
2012,02,01,01,11,5.80
2012,02,01,01,12,5.80
2012,02,01,01,13,5.80
2012,02,01,01,14,5.80
2012,02,01,01,15,5.80
2012,02,01,01,16,5.80
2012,02,01,01,17,5.80
2012,02,01,01,18,5.80
2012,02,01,01,19,5.80
2012,02,01,01,20,5.80
2012,02,01,01,21,5.90
2012,02,01,01,22,5.90
2012,02,01,01,23,6.00
2012,02,01,01,24,6.00
2012,02,01,01,25,6.00
2012,02,01,01,26,6.10
2012,02,01,01,27,6.10
2012,02,01,01,28,6.10
2012,02,01,01,29,6.10
2012,02,01,01,30,6.10
2012,02,01,01,31,6.10
2012,02,01,01,32,6.10
2012,02,01,01,33,6.10
2012,02,01,01,34,6.10
2012,02,01,01,35,6.10
2012,02,01,01,36,6.20
2012,02,01,01,37,6.20
2012,02,01,01,38,6.20
2012,02,01,01,39,6.20
2012,02,01,01,40,6.20
2012,02,01,01,41,6.20
2012,02,01,01,42,6.20
2012,02,01,01,43,6.20
2012,02,01,01,44,6.20
2012,02,01,01,45,6.20
2012,02,01,01,46,6.20
2012,02,01,01,47,6.20
2012,02,01,01,48,6.20
2012,02,01,01,49,6.20
2012,02,01,01,50,6.20
2012,02,01,01,51,6.20
2012,02,01,01,52,6.20
2012,02,01,01,53,6.20
2012,02,01,01,54,6.20
2012,02,01,01,55,6.20
2012,02,01,01,56,6.20
2012,02,01,01,57,6.20
2012,02,01,01,58,6.20
2012,02,01,01,59,6.20
2012,02,01,02,00,6.20
2012,02,01,02,01,6.20
2012,02,01,02,02,6.20
2012,02,01,02,03,6.20
2012,02,01,02,04,6.20
2012,02,01,02,05,6.20
2012,02,01,02,06,6.20
2012,02,01,02,07,6.20
2012,02,01,02,08,6.20
2012,02,01,02,09,6.20
2012,02,01,02,10,6.20
2012,02,01,02,11,6.20
2012,02,01,02,12,6.20
2012,02,01,02,13,6.20
2012,02,01,02,14,6.20
2012,02,01,02,15,6.20
2012,02,01,02,16,6.20
2012,02,01,02,17,6.20
2012,02,01,02,18,6.20
2012,02,01,02,19,6.20
2012,02,01,02,20,6.20
2012,02,01,02,21,6.20
2012,02,01,02,22,6.20
2012,02,01,02,23,6.20
2012,02,01,02,24,6.20
2012,02,01,02,25,6.20
2012,02,01,02,26,6.20
2012,02,01,02,27,6.20
2012,02,01,02,28,6.20
2012,02,01,02,29,6.20
2012,02,01,02,30,6.20
2012,02,01,02,31,6.20
2012,02,01,02,32,6.20
2012,02,01,02,33,6.20
2012,02,01,02,34,6.20
2012,02,01,02,35,6.20
2012,02,01,02,36,6.20
2012,02,01,02,37,6.20
2012,02,01,02,38,6.20
2012,02,01,02,39,6.20
2012,02,01,02,40,6.20
2012,02,01,02,41,6.20
2012,02,01,02,42,6.10
2012,02,01,02,43,6.10
2012,02,01,02,44,6.10
2012,02,01,02,45,6.10
2012,02,01,02,46,6.10
2012,02,01,02,47,6.10
2012,02,01,02,48,6.10
2012,02,01,02,49,6.10
2012,02,01,02,50,6.10
2012,02,01,02,51,6.10
2012,02,01,02,52,6.10
2012,02,01,02,53,6.10
2012,02,01,02,54,6.10
2012,02,01,02,55,6.10
2012,02,01,02,56,6.10
2012,02,01,02,57,6.10
2012,02,01,02,58,6.10
2012,02,01,02,59,6.10
2012,02,01,03,00,6.10
2012,02,01,03,01,6.10
2012,02,01,03,02,6.00
2012,02,01,03,03,6.00
2012,02,01,03,04,6.00
2012,02,01,03,05,6.00
2012,02,01,03,06,6.00
2012,02,01,03,07,6.00
2012,02,01,03,08,6.00
2012,02,01,03,09,5.90
2012,02,01,03,10,5.90
2012,02,01,03,11,5.90
2012,02,01,03,12,5.90
2012,02,01,03,13,5.90
2012,02,01,03,14,5.90
2012,02,01,03,15,5.90
2012,02,01,03,16,5.90
2012,02,01,03,17,5.90
2012,02,01,03,18,5.80
2012,02,01,03,19,5.80
2012,02,01,03,20,5.80
2012,02,01,03,21,5.80
2012,02,01,03,22,5.80
2012,02,01,03,23,5.80
2012,02,01,03,24,5.80
2012,02,01,03,25,5.80
2012,02,01,03,26,5.80
2012,02,01,03,27,5.80
2012,02,01,03,28,5.80
2012,02,01,03,29,5.80
2012,02,01,03,30,5.80
2012,02,01,03,31,5.80
2012,02,01,03,32,5.80
2012,02,01,03,33,5.80
2012,02,01,03,34,5.80
2012,02,01,03,35,5.80
2012,02,01,03,36,5.80
2012,02,01,03,37,5.80
2012,02,01,03,38,5.80
2012,02,01,03,39,5.80
2012,02,01,03,40,5.80
2012,02,01,03,41,5.80
2012,02,01,03,42,5.80
2012,02,01,03,43,5.80
2012,02,01,03,44,5.80
2012,02,01,03,45,5.80
2012,02,01,03,46,5.80
2012,02,01,03,47,5.80
2012,02,01,03,48,5.80
2012,02,01,03,49,5.80
2012,02,01,03,50,5.80
2012,02,01,03,51,5.80
2012,02,01,03,52,5.80
2012,02,01,03,53,5.80
2012,02,01,03,54,5.80
2012,02,01,03,55,5.80
2012,02,01,03,56,5.80
2012,02,01,03,57,5.80
2012,02,01,03,58,5.80
2012,02,01,03,59,5.80
2012,02,01,04,00,5.80
2012,02,01,04,01,5.80
2012,02,01,04,02,5.80
2012,02,01,04,03,5.80
2012,02,01,04,04,5.80
2012,02,01,04,05,5.80
2012,02,01,04,06,5.80
2012,02,01,04,07,5.80
2012,02,01,04,08,5.80
2012,02,01,04,09,5.70
2012,02,01,04,10,5.70
2012,02,01,04,11,5.70
2012,02,01,04,12,5.70
2012,02,01,04,13,5.70
2012,02,01,04,14,5.70
2012,02,01,04,15,5.70
2012,02,01,04,16,5.70
2012,02,01,04,17,5.70
2012,02,01,04,18,5.70
2012,02,01,04,19,5.70
2012,02,01,04,20,5.70
2012,02,01,04,21,5.70
2012,02,01,04,22,5.70
2012,02,01,04,23,5.70
2012,02,01,04,24,5.60
2012,02,01,04,25,5.60
2012,02,01,04,26,5.60
2012,02,01,04,27,5.60
2012,02,01,04,28,5.60
2012,02,01,04,29,5.60
2012,02,01,04,30,5.60
2012,02,01,04,31,5.60
2012,02,01,04,32,5.60
2012,02,01,04,33,5.60
2012,02,01,04,34,5.60
2012,02,01,04,35,5.60
2012,02,01,04,36,5.60
2012,02,01,04,37,5.60
2012,02,01,04,38,5.60
2012,02,01,04,39,5.60
2012,02,01,04,40,5.60
2012,02,01,04,41,5.60
2012,02,01,04,42,5.60
2012,02,01,04,43,5.60
2012,02,01,04,44,5.60
2012,02,01,04,45,5.60
2012,02,01,04,46,5.60
2012,02,01,04,47,5.60
2012,02,01,04,48,5.60
2012,02,01,04,49,5.60
2012,02,01,04,50,5.60
2012,02,01,04,51,5.60
2012,02,01,04,52,5.60
2012,02,01,04,53,5.60
2012,02,01,04,54,5.60
2012,02,01,04,55,5.60
2012,02,01,04,56,5.50
2012,02,01,04,57,5.50
2012,02,01,04,58,5.50
2012,02,01,04,59,5.50
2012,02,01,05,00,5.50
2012,02,01,05,01,5.50
2012,02,01,05,02,5.50
2012,02,01,05,03,5.50
2012,02,01,05,04,5.50
2012,02,01,05,05,5.50
2012,02,01,05,06,5.50
2012,02,01,05,07,5.50
2012,02,01,05,08,5.50
2012,02,01,05,09,5.50
2012,02,01,05,10,5.50
2012,02,01,05,11,5.50
2012,02,01,05,12,5.50
2012,02,01,05,13,5.50
2012,02,01,05,14,5.50
2012,02,01,05,15,5.50
2012,02,01,05,16,5.50
2012,02,01,05,17,5.40
2012,02,01,05,18,5.40
2012,02,01,05,19,5.40
2012,02,01,05,20,5.40
2012,02,01,05,21,5.40
2012,02,01,05,22,5.40
2012,02,01,05,23,5.40
2012,02,01,05,24,5.40
2012,02,01,05,25,5.40
2012,02,01,05,26,5.40
2012,02,01,05,27,5.30
2012,02,01,05,28,5.30
2012,02,01,05,29,5.30
2012,02,01,05,30,5.30
2012,02,01,05,31,5.30
2012,02,01,05,32,5.30
2012,02,01,05,33,5.30
2012,02,01,05,34,5.30
2012,02,01,05,35,5.20
2012,02,01,05,36,5.20
2012,02,01,05,37,5.20
2012,02,01,05,38,5.20
2012,02,01,05,39,5.20
2012,02,01,05,40,5.20
2012,02,01,05,41,5.20
2012,02,01,05,42,5.20
2012,02,01,05,43,5.20
2012,02,01,05,44,5.20
2012,02,01,05,45,5.20
2012,02,01,05,46,5.20
2012,02,01,05,47,5.20
2012,02,01,05,48,5.20
2012,02,01,05,49,5.10
2012,02,01,05,50,5.10
2012,02,01,05,51,5.10
2012,02,01,05,52,5.10
2012,02,01,05,53,5.00
2012,02,01,05,54,5.00
2012,02,01,05,55,4.90
2012,02,01,05,56,4.90
2012,02,01,05,57,4.90
2012,02,01,05,58,4.90
2012,02,01,05,59,4.90
2012,02,01,06,00,4.90
2012,02,01,06,01,4.90
2012,02,01,06,02,4.90
2012,02,01,06,03,4.90
2012,02,01,06,04,4.80
2012,02,01,06,05,4.80
2012,02,01,06,06,4.80
2012,02,01,06,07,4.80
2012,02,01,06,08,4.80
2012,02,01,06,09,4.70
2012,02,01,06,10,4.70
2012,02,01,06,11,4.70
2012,02,01,06,12,4.70
2012,02,01,06,13,4.70
2012,02,01,06,14,4.70
2012,02,01,06,15,4.60
2012,02,01,06,16,4.60
2012,02,01,06,17,4.60
2012,02,01,06,18,4.60
2012,02,01,06,19,4.50
2012,02,01,06,20,4.50
2012,02,01,06,21,4.50
2012,02,01,06,22,4.50
2012,02,01,06,23,4.50
2012,02,01,06,24,4.40
2012,02,01,06,25,4.40
2012,02,01,06,26,4.40
2012,02,01,06,27,4.40
2012,02,01,06,28,4.40
2012,02,01,06,29,4.40
2012,02,01,06,30,4.40
2012,02,01,06,31,4.30
2012,02,01,06,32,4.30
2012,02,01,06,33,4.30
2012,02,01,06,34,4.30
2012,02,01,06,35,4.30
2012,02,01,06,36,4.30
2012,02,01,06,37,4.20
2012,02,01,06,38,4.20
2012,02,01,06,39,4.20
2012,02,01,06,40,4.20
2012,02,01,06,41,4.20
2012,02,01,06,42,4.10
2012,02,01,06,43,4.10
2012,02,01,06,44,4.10
2012,02,01,06,45,4.00
2012,02,01,06,46,4.00
2012,02,01,06,47,4.00
2012,02,01,06,48,3.90
2012,02,01,06,49,3.90
2012,02,01,06,50,3.90
2012,02,01,06,51,3.90
2012,02,01,06,52,3.90
2012,02,01,06,53,3.80
2012,02,01,06,54,3.80
2012,02,01,06,55,3.80
2012,02,01,06,56,3.80
2012,02,01,06,57,3.80
2012,02,01,06,58,3.80
2012,02,01,06,59,3.80
2012,02,01,07,00,3.80
2012,02,01,07,01,3.80
2012,02,01,07,02,3.80
2012,02,01,07,03,3.80
2012,02,01,07,04,3.80
2012,02,01,07,05,3.70
2012,02,01,07,06,3.70
2012,02,01,07,07,3.70
2012,02,01,07,08,3.70
2012,02,01,07,09,3.70
2012,02,01,07,10,3.70
2012,02,01,07,11,3.70
2012,02,01,07,12,3.70
2012,02,01,07,13,3.70
2012,02,01,07,14,3.70
2012,02,01,07,15,3.70
2012,02,01,07,16,3.80
2012,02,01,07,17,3.80
2012,02,01,07,18,3.80
2012,02,01,07,19,3.70
2012,02,01,07,20,3.70
2012,02,01,07,21,3.70
2012,02,01,07,22,3.70
2012,02,01,07,23,3.70
2012,02,01,07,24,3.70
2012,02,01,07,25,3.70
2012,02,01,07,26,3.60
2012,02,01,07,27,3.60
2012,02,01,07,28,3.60
2012,02,01,07,29,3.60
2012,02,01,07,30,3.60
2012,02,01,07,31,3.50
2012,02,01,07,32,3.50
2012,02,01,07,33,3.50
2012,02,01,07,34,3.40
2012,02,01,07,35,3.40
2012,02,01,07,36,3.40
2012,02,01,07,37,3.40
2012,02,01,07,38,3.40
2012,02,01,07,39,3.40
2012,02,01,07,40,3.40
2012,02,01,07,41,3.40
2012,02,01,07,42,3.40
2012,02,01,07,43,3.40
2012,02,01,07,44,3.30
2012,02,01,07,45,3.30
2012,02,01,07,46,3.30
2012,02,01,07,47,3.30
2012,02,01,07,48,3.30
2012,02,01,07,49,3.30
2012,02,01,07,50,3.30
2012,02,01,07,51,3.30
2012,02,01,07,52,3.30
2012,02,01,07,53,3.30
2012,02,01,07,54,3.30
2012,02,01,07,55,3.30
2012,02,01,07,56,3.30
2012,02,01,07,57,3.20
2012,02,01,07,58,3.20
2012,02,01,07,59,3.20
2012,02,01,08,00,3.10
2012,02,01,08,01,3.10
2012,02,01,08,02,3.10
2012,02,01,08,03,3.00
2012,02,01,08,04,3.00
2012,02,01,08,05,3.00
2012,02,01,08,06,3.00
2012,02,01,08,07,3.00
2012,02,01,08,08,3.00
2012,02,01,08,09,3.00
2012,02,01,08,10,3.00
2012,02,01,08,11,3.00
2012,02,01,08,12,3.00
2012,02,01,08,13,3.10
2012,02,01,08,14,3.10
2012,02,01,08,15,3.20
2012,02,01,08,16,3.20
2012,02,01,08,17,3.20
2012,02,01,08,18,3.20
2012,02,01,08,19,3.20
2012,02,01,08,20,3.20
2012,02,01,08,21,3.10
2012,02,01,08,22,3.10
2012,02,01,08,23,3.10
2012,02,01,08,24,3.10
2012,02,01,08,25,3.10
2012,02,01,08,26,3.10
2012,02,01,08,27,3.10
2012,02,01,08,28,3.10
2012,02,01,08,29,3.10
2012,02,01,08,30,3.10
2012,02,01,08,31,3.10
2012,02,01,08,32,3.10
2012,02,01,08,33,3.20
2012,02,01,08,34,3.20
2012,02,01,08,35,3.30
2012,02,01,08,36,3.30
2012,02,01,08,37,3.40
2012,02,01,08,38,3.40
2012,02,01,08,39,3.50
2012,02,01,08,40,3.50
2012,02,01,08,41,3.60
2012,02,01,08,42,3.60
2012,02,01,08,43,3.60
2012,02,01,08,44,3.70
2012,02,01,08,45,3.70
2012,02,01,08,46,3.70
2012,02,01,08,47,3.70
2012,02,01,08,48,3.70
2012,02,01,08,49,3.70
2012,02,01,08,50,3.70
2012,02,01,08,51,3.70
2012,02,01,08,52,3.70
2012,02,01,08,53,3.70
2012,02,01,08,54,3.80
2012,02,01,08,55,3.80
2012,02,01,08,56,3.80
2012,02,01,08,57,3.80
2012,02,01,08,58,3.80
2012,02,01,08,59,3.80
2012,02,01,09,00,3.80
2012,02,01,09,01,3.90
2012,02,01,09,02,3.90
2012,02,01,09,03,3.90
2012,02,01,09,04,4.00
2012,02,01,09,05,4.00
2012,02,01,09,06,4.00
2012,02,01,09,07,4.00
2012,02,01,09,08,4.10
2012,02,01,09,09,4.10
2012,02,01,09,10,4.10
2012,02,01,09,11,4.20
2012,02,01,09,12,4.20
2012,02,01,09,13,4.20
2012,02,01,09,14,4.20
2012,02,01,09,15,4.30
2012,02,01,09,16,4.30
2012,02,01,09,17,4.30
2012,02,01,09,18,4.30
2012,02,01,09,19,4.40
2012,02,01,09,20,4.40
2012,02,01,09,21,4.40
2012,02,01,09,22,4.50
2012,02,01,09,23,4.50
2012,02,01,09,24,4.60
2012,02,01,09,25,4.60
2012,02,01,09,26,4.70
2012,02,01,09,27,4.70
2012,02,01,09,28,4.70
2012,02,01,09,29,4.80
2012,02,01,09,30,4.80
2012,02,01,09,31,4.90
2012,02,01,09,32,4.90
2012,02,01,09,33,5.00
2012,02,01,09,34,5.10
2012,02,01,09,35,5.10
2012,02,01,09,36,5.20
2012,02,01,09,37,5.30
2012,02,01,09,38,5.30
2012,02,01,09,39,5.30
2012,02,01,09,40,5.30
2012,02,01,09,41,5.40
2012,02,01,09,42,5.40
2012,02,01,09,43,5.40
2012,02,01,09,44,5.40
2012,02,01,09,45,5.50
2012,02,01,09,46,5.50
2012,02,01,09,47,5.50
2012,02,01,09,48,5.60
2012,02,01,09,49,5.60
2012,02,01,09,50,5.60
2012,02,01,09,51,5.60
2012,02,01,09,52,5.70
2012,02,01,09,53,5.70
2012,02,01,09,54,5.80
2012,02,01,09,55,5.80
2012,02,01,09,56,5.90
2012,02,01,09,57,5.90
2012,02,01,09,58,6.00
2012,02,01,09,59,6.10
2012,02,01,10,00,6.10
2012,02,01,10,01,6.30
2012,02,01,10,02,6.40
2012,02,01,10,03,6.40
2012,02,01,10,04,6.50
2012,02,01,10,05,6.60
2012,02,01,10,06,6.60
2012,02,01,10,07,6.60
2012,02,01,10,08,6.60
2012,02,01,10,09,6.60
2012,02,01,10,10,6.60
2012,02,01,10,11,6.70
2012,02,01,10,12,6.70
2012,02,01,10,13,6.70
2012,02,01,10,14,6.80
2012,02,01,10,15,6.80
2012,02,01,10,16,6.80
2012,02,01,10,17,6.80
2012,02,01,10,18,6.80
2012,02,01,10,19,6.80
2012,02,01,10,20,6.80
2012,02,01,10,21,6.80
2012,02,01,10,22,6.80
2012,02,01,10,23,6.90
2012,02,01,10,24,6.90
2012,02,01,10,25,7.00
2012,02,01,10,26,7.00
2012,02,01,10,27,7.00
2012,02,01,10,28,6.90
2012,02,01,10,29,6.80
2012,02,01,10,30,6.80
2012,02,01,10,31,6.80
2012,02,01,10,32,6.80
2012,02,01,10,33,6.80
2012,02,01,10,34,6.90
2012,02,01,10,35,6.90
2012,02,01,10,36,6.80
2012,02,01,10,37,6.80
2012,02,01,10,38,6.90
2012,02,01,10,39,6.90
2012,02,01,10,40,7.00
2012,02,01,10,41,7.00
2012,02,01,10,42,7.10
2012,02,01,10,43,7.10
2012,02,01,10,44,7.10
2012,02,01,10,45,7.10
2012,02,01,10,46,7.10
2012,02,01,10,47,7.10
2012,02,01,10,48,7.10
2012,02,01,10,49,7.20
2012,02,01,10,50,7.20
2012,02,01,10,51,7.20
2012,02,01,10,52,7.20
2012,02,01,10,53,7.20
2012,02,01,10,54,7.20
2012,02,01,10,55,7.20
2012,02,01,10,56,7.20
2012,02,01,10,57,7.30
2012,02,01,10,58,7.30
2012,02,01,10,59,7.20
2012,02,01,11,00,7.20
2012,02,01,11,01,7.20
2012,02,01,11,02,7.10
2012,02,01,11,03,7.10
2012,02,01,11,04,7.10
2012,02,01,11,05,7.00
2012,02,01,11,06,7.00
2012,02,01,11,07,7.00
2012,02,01,11,08,6.90
2012,02,01,11,09,6.90
2012,02,01,11,10,6.90
2012,02,01,11,11,6.90
2012,02,01,11,12,7.00
2012,02,01,11,13,7.00
2012,02,01,11,14,7.00
2012,02,01,11,15,7.10
2012,02,01,11,16,7.10
2012,02,01,11,17,7.10
2012,02,01,11,18,7.10
2012,02,01,11,19,7.20
2012,02,01,11,20,7.20
2012,02,01,11,21,7.20
2012,02,01,11,22,7.20
2012,02,01,11,23,7.30
2012,02,01,11,24,7.30
2012,02,01,11,25,7.30
2012,02,01,11,26,7.30
2012,02,01,11,27,7.30
2012,02,01,11,28,7.30
2012,02,01,11,29,7.30
2012,02,01,11,30,7.20
2012,02,01,11,31,7.20
2012,02,01,11,32,7.20
2012,02,01,11,33,7.20
2012,02,01,11,34,7.20
2012,02,01,11,35,7.20
2012,02,01,11,36,7.10
2012,02,01,11,37,7.10
2012,02,01,11,38,7.10
2012,02,01,11,39,7.10
2012,02,01,11,40,7.10
2012,02,01,11,41,7.10
2012,02,01,11,42,7.00
2012,02,01,11,43,7.10
2012,02,01,11,44,7.00
2012,02,01,11,45,7.00
2012,02,01,11,46,7.00
2012,02,01,11,47,7.00
2012,02,01,11,48,6.90
2012,02,01,11,49,7.00
2012,02,01,11,50,7.00
2012,02,01,11,51,7.00
2012,02,01,11,52,7.00
2012,02,01,11,53,7.00
2012,02,01,11,54,7.10
2012,02,01,11,55,7.10
2012,02,01,11,56,7.10
2012,02,01,11,57,7.10
2012,02,01,11,58,7.10
2012,02,01,11,59,7.20
2012,02,01,12,00,7.20
2012,02,01,12,01,7.20
2012,02,01,12,02,7.20
2012,02,01,12,03,7.20
2012,02,01,12,04,7.30
2012,02,01,12,05,7.40
2012,02,01,12,06,7.50
2012,02,01,12,07,7.70
2012,02,01,12,08,7.80
2012,02,01,12,09,8.00
2012,02,01,12,10,8.10
2012,02,01,12,11,8.10
2012,02,01,12,12,8.20
2012,02,01,12,13,8.20
2012,02,01,12,14,8.20
2012,02,01,12,15,8.30
2012,02,01,12,16,8.30
2012,02,01,12,17,8.30
2012,02,01,12,18,8.30
2012,02,01,12,19,8.20
2012,02,01,12,20,8.30
2012,02,01,12,21,8.30
2012,02,01,12,22,8.30
2012,02,01,12,23,8.30
2012,02,01,12,24,8.40
2012,02,01,12,25,8.50
2012,02,01,12,26,8.60
2012,02,01,12,27,8.60
2012,02,01,12,28,8.70
2012,02,01,12,29,8.70
2012,02,01,12,30,8.80
2012,02,01,12,31,8.80
2012,02,01,12,32,8.90
2012,02,01,12,33,8.90
2012,02,01,12,34,9.00
2012,02,01,12,35,9.10
2012,02,01,12,36,9.10
2012,02,01,12,37,9.10
2012,02,01,12,38,9.10
2012,02,01,12,39,9.10
2012,02,01,12,40,9.00
2012,02,01,12,41,8.90
2012,02,01,12,42,8.80
2012,02,01,12,43,8.70
2012,02,01,12,44,8.60
2012,02,01,12,45,8.50
2012,02,01,12,46,8.50
2012,02,01,12,47,8.40
2012,02,01,12,48,8.40
2012,02,01,12,49,8.50
2012,02,01,12,50,8.50
2012,02,01,12,51,8.50
2012,02,01,12,52,8.50
2012,02,01,12,53,8.50
2012,02,01,12,54,8.60
2012,02,01,12,55,8.50
2012,02,01,12,56,8.50
2012,02,01,12,57,8.40
2012,02,01,12,58,8.40
2012,02,01,12,59,8.50
2012,02,01,13,00,8.50
2012,02,01,13,01,8.40
2012,02,01,13,02,8.40
2012,02,01,13,03,8.40
2012,02,01,13,04,8.30
2012,02,01,13,05,8.20
2012,02,01,13,06,8.10
2012,02,01,13,07,8.00
2012,02,01,13,08,7.90
2012,02,01,13,09,7.90
2012,02,01,13,10,7.80
2012,02,01,13,11,7.80
2012,02,01,13,12,7.70
2012,02,01,13,13,7.70
2012,02,01,13,14,7.70
2012,02,01,13,15,7.80
2012,02,01,13,16,7.80
2012,02,01,13,17,7.80
2012,02,01,13,18,7.90
2012,02,01,13,19,7.90
2012,02,01,13,20,7.90
2012,02,01,13,21,8.00
2012,02,01,13,22,8.10
2012,02,01,13,23,8.10
2012,02,01,13,24,8.10
2012,02,01,13,25,8.10
2012,02,01,13,26,8.10
2012,02,01,13,27,8.10
2012,02,01,13,28,8.10
2012,02,01,13,29,8.10
2012,02,01,13,30,8.10
2012,02,01,13,31,8.10
2012,02,01,13,32,8.10
2012,02,01,13,33,8.10
2012,02,01,13,34,8.10
2012,02,01,13,35,8.10
2012,02,01,13,36,8.10
2012,02,01,13,37,8.20
2012,02,01,13,38,8.20
2012,02,01,13,39,8.20
2012,02,01,13,40,8.20
2012,02,01,13,41,8.30
2012,02,01,13,42,8.30
2012,02,01,13,43,8.30
2012,02,01,13,44,8.30
2012,02,01,13,45,8.30
2012,02,01,13,46,8.30
2012,02,01,13,47,8.30
2012,02,01,13,48,8.30
2012,02,01,13,49,8.30
2012,02,01,13,50,8.30
2012,02,01,13,51,8.30
2012,02,01,13,52,8.20
2012,02,01,13,53,8.20
2012,02,01,13,54,8.20
2012,02,01,13,55,8.20
2012,02,01,13,56,8.20
2012,02,01,13,57,8.20
2012,02,01,13,58,8.20
2012,02,01,13,59,8.20
2012,02,01,14,00,8.20
2012,02,01,14,01,8.20
2012,02,01,14,02,8.20
2012,02,01,14,03,8.20
2012,02,01,14,04,8.20
2012,02,01,14,05,8.20
2012,02,01,14,06,8.20
2012,02,01,14,07,8.20
2012,02,01,14,08,8.20
2012,02,01,14,09,8.20
2012,02,01,14,10,8.20
2012,02,01,14,11,8.20
2012,02,01,14,12,8.20
2012,02,01,14,13,8.20
2012,02,01,14,14,8.20
2012,02,01,14,15,8.20
2012,02,01,14,16,8.20
2012,02,01,14,17,8.20
2012,02,01,14,18,8.20
2012,02,01,14,19,8.20
2012,02,01,14,20,8.20
2012,02,01,14,21,8.20
2012,02,01,14,22,8.20
2012,02,01,14,23,8.20
2012,02,01,14,24,8.20
2012,02,01,14,25,8.30
2012,02,01,14,26,8.30
2012,02,01,14,27,8.30
2012,02,01,14,28,8.30
2012,02,01,14,29,8.40
2012,02,01,14,30,8.40
2012,02,01,14,31,8.40
2012,02,01,14,32,8.50
2012,02,01,14,33,8.50
2012,02,01,14,34,8.60
2012,02,01,14,35,8.70
2012,02,01,14,36,8.70
2012,02,01,14,37,8.80
2012,02,01,14,38,8.90
2012,02,01,14,39,9.00
2012,02,01,14,40,9.00
2012,02,01,14,41,9.10
2012,02,01,14,42,9.20
2012,02,01,14,43,9.30
2012,02,01,14,44,9.30
2012,02,01,14,45,9.30
2012,02,01,14,46,9.30
2012,02,01,14,47,9.20
2012,02,01,14,48,9.20
2012,02,01,14,49,9.10
2012,02,01,14,50,9.10
2012,02,01,14,51,9.10
2012,02,01,14,52,9.10
2012,02,01,14,53,9.10
2012,02,01,14,54,9.10
2012,02,01,14,55,9.10
2012,02,01,14,56,9.00
2012,02,01,14,57,9.00
2012,02,01,14,58,9.00
2012,02,01,14,59,9.10
2012,02,01,15,00,9.10
2012,02,01,15,01,9.10
2012,02,01,15,02,9.10
2012,02,01,15,03,9.10
2012,02,01,15,04,9.10
2012,02,01,15,05,9.10
2012,02,01,15,06,9.10
2012,02,01,15,07,9.00
2012,02,01,15,08,9.00
2012,02,01,15,09,8.90
2012,02,01,15,10,8.90
2012,02,01,15,11,8.90
2012,02,01,15,12,8.80
2012,02,01,15,13,8.80
2012,02,01,15,14,8.80
2012,02,01,15,15,8.70
2012,02,01,15,16,8.70
2012,02,01,15,17,8.60
2012,02,01,15,18,8.60
2012,02,01,15,19,8.50
2012,02,01,15,20,8.40
2012,02,01,15,21,8.40
2012,02,01,15,22,8.30
2012,02,01,15,23,8.30
2012,02,01,15,24,8.30
2012,02,01,15,25,8.30
2012,02,01,15,26,8.30
2012,02,01,15,27,8.30
2012,02,01,15,28,8.30
2012,02,01,15,29,8.30
2012,02,01,15,30,8.30
2012,02,01,15,31,8.30
2012,02,01,15,32,8.20
2012,02,01,15,33,8.20
2012,02,01,15,34,8.20
2012,02,01,15,35,8.20
2012,02,01,15,36,8.20
2012,02,01,15,37,8.20
2012,02,01,15,38,8.20
2012,02,01,15,39,8.20
2012,02,01,15,40,8.20
2012,02,01,15,41,8.10
2012,02,01,15,42,8.10
2012,02,01,15,43,8.10
2012,02,01,15,44,8.20
2012,02,01,15,45,8.20
2012,02,01,15,46,8.20
2012,02,01,15,47,8.20
2012,02,01,15,48,8.20
2012,02,01,15,49,8.30
2012,02,01,15,50,8.30
2012,02,01,15,51,8.30
2012,02,01,15,52,8.40
2012,02,01,15,53,8.40
2012,02,01,15,54,8.40
2012,02,01,15,55,8.50
2012,02,01,15,56,8.50
2012,02,01,15,57,8.50
2012,02,01,15,58,8.60
2012,02,01,15,59,8.60
2012,02,01,16,00,8.50
2012,02,01,16,01,8.50
2012,02,01,16,02,8.50
2012,02,01,16,03,8.50
2012,02,01,16,04,8.50
2012,02,01,16,05,8.50
2012,02,01,16,06,8.50
2012,02,01,16,07,8.50
2012,02,01,16,08,8.40
2012,02,01,16,09,8.40
2012,02,01,16,10,8.40
2012,02,01,16,11,8.40
2012,02,01,16,12,8.30
2012,02,01,16,13,8.30
2012,02,01,16,14,8.20
2012,02,01,16,15,8.20
2012,02,01,16,16,8.10
2012,02,01,16,17,8.10
2012,02,01,16,18,8.10
2012,02,01,16,19,8.00
2012,02,01,16,20,7.90
2012,02,01,16,21,7.90
2012,02,01,16,22,7.90
2012,02,01,16,23,7.80
2012,02,01,16,24,7.80
2012,02,01,16,25,7.80
2012,02,01,16,26,7.70
2012,02,01,16,27,7.70
2012,02,01,16,28,7.60
2012,02,01,16,29,7.60
2012,02,01,16,30,7.50
2012,02,01,16,31,7.50
2012,02,01,16,32,7.50
2012,02,01,16,33,7.50
2012,02,01,16,34,7.40
2012,02,01,16,35,7.40
2012,02,01,16,36,7.40
2012,02,01,16,37,7.40
2012,02,01,16,38,7.30
2012,02,01,16,39,7.30
2012,02,01,16,40,7.30
2012,02,01,16,41,7.30
2012,02,01,16,42,7.30
2012,02,01,16,43,7.30
2012,02,01,16,44,7.30
2012,02,01,16,45,7.20
2012,02,01,16,46,7.20
2012,02,01,16,47,7.20
2012,02,01,16,48,7.20
2012,02,01,16,49,7.10
2012,02,01,16,50,7.10
2012,02,01,16,51,7.10
2012,02,01,16,52,7.10
2012,02,01,16,53,7.10
2012,02,01,16,54,7.00
2012,02,01,16,55,7.00
2012,02,01,16,56,7.00
2012,02,01,16,57,7.00
2012,02,01,16,58,6.90
2012,02,01,16,59,6.90
2012,02,01,17,00,6.90
2012,02,01,17,01,6.90
2012,02,01,17,02,6.90
2012,02,01,17,03,6.80
2012,02,01,17,04,6.80
2012,02,01,17,05,6.80
2012,02,01,17,06,6.80
2012,02,01,17,07,6.80
2012,02,01,17,08,6.80
2012,02,01,17,09,6.80
2012,02,01,17,10,6.70
2012,02,01,17,11,6.70
2012,02,01,17,12,6.70
2012,02,01,17,13,6.70
2012,02,01,17,14,6.70
2012,02,01,17,15,6.60
2012,02,01,17,16,6.60
2012,02,01,17,17,6.60
2012,02,01,17,18,6.60
2012,02,01,17,19,6.60
2012,02,01,17,20,6.60
2012,02,01,17,21,6.60
2012,02,01,17,22,6.50
2012,02,01,17,23,6.50
2012,02,01,17,24,6.50
2012,02,01,17,25,6.50
2012,02,01,17,26,6.50
2012,02,01,17,27,6.50
2012,02,01,17,28,6.50
2012,02,01,17,29,6.50
2012,02,01,17,30,6.40
2012,02,01,17,31,6.40
2012,02,01,17,32,6.40
2012,02,01,17,33,6.40
2012,02,01,17,34,6.40
2012,02,01,17,35,6.40
2012,02,01,17,36,6.40
2012,02,01,17,37,6.40
2012,02,01,17,38,6.30
2012,02,01,17,39,6.30
2012,02,01,17,40,6.30
2012,02,01,17,41,6.30
2012,02,01,17,42,6.20
2012,02,01,17,43,6.20
2012,02,01,17,44,6.20
2012,02,01,17,45,6.10
2012,02,01,17,46,6.10
2012,02,01,17,47,6.00
2012,02,01,17,48,6.00
2012,02,01,17,49,6.00
2012,02,01,17,50,5.90
2012,02,01,17,51,5.90
2012,02,01,17,52,5.90
2012,02,01,17,53,5.80
2012,02,01,17,54,5.80
2012,02,01,17,55,5.80
2012,02,01,17,56,5.80
2012,02,01,17,57,5.70
2012,02,01,17,58,5.70
2012,02,01,17,59,5.60
2012,02,01,18,00,5.60
2012,02,01,18,01,5.60
2012,02,01,18,02,5.60
2012,02,01,18,03,5.60
2012,02,01,18,04,5.60
2012,02,01,18,05,5.50
2012,02,01,18,06,5.50